Location: Seattle
(47.6064°N, 122.3308°W)
Time: 22:51:12
(UTC-08:00)

Vanguard 2 - Pass Details

Date: 05 December 2020
Orbit: 553 x 2937 km, 32.9° (Epoch: 16 January)

Event Time Altitude Azimuth Distance (km) Brightness Sun altitude
Rises 05:46:17 0° 203° (SSW) 5,865 11.9 -18.7°
Reaches altitude 10° 05:53:38 10° 179° (S) 4,241 11.5 -17.5°
Maximum altitude 05:57:34 12° 158° (SSE) 3,664 11.5 -16.8°
Drops below altitude 10° 06:00:57 10° 136° (SE) 3,519 11.8 -16.3°
Sets 06:05:40 0° 108° (ESE) 3,988 13.1 -15.5°
